[[{"header":{"parameterUnit":"m.s-1","parameterCategory":1,"la1":30.2992,"la2":30.254,"lo1":-89.0895,"lo2":-89.0443,"dy":0.0025,"dx":0.0025,"nx":19,"ny":19,"refTime":"2026-04-09T03:00:00:Z","depth":0,"parameterNumber":2,"parameterNumberName":"U-component_of_WINDS"},"data":[0,0,0,-5.5309,-5.5314,-5.5512,-5.5513,-5.581,-5.5813,0,0,0,0,0,0,0,0,0,0,0,-5.5276,-5.5279,-5.5308,-5.5314,-5.5512,-5.5513,-5.581,-5.5813,0,0,0,0,0,0,0,0,0,0,0,-5.5274,-5.5278,-5.5282,-5.5315,-5.5512,-5.5513,-5.5809,-5.5644,0,0,0,0,0,0,0,0,0,0,-5.5444,-5.5439,-5.5277,-5.5282,-5.5316,-5.5512,-5.5513,-5.5635,-5.5654,-5.5739,0,-5.582,0,-5.5822,-5.5836,-5.5837,0,0,0,-5.5295,-5.5423,-5.5453,-5.5282,-5.5318,-5.5512,-5.5417,-5.5645,-5.5667,-5.5764,-5.5824,-5.5834,-5.5827,-5.5838,-5.584,-5.6388,-5.6391,0,0,-5.5284,-5.5326,-5.5438,-5.5468,-5.5439,-5.5411,-5.5424,-5.5658,-5.5726,-5.5825,-5.584,-5.5832,-5.584,-5.5843,-5.6385,-5.6389,0,0,0,-5.5265,-5.5319,-5.5342,-5.5457,-5.5489,-5.5418,-5.5432,-5.5716,-5.572,-5.5843,-5.5835,-5.5842,-5.5847,-5.6381,-5.6386,-5.6597,0,0,0,-5.5258,-5.5308,-5.5338,-5.5366,-5.5486,-5.5605,-5.5486,-5.5703,-5.5728,-5.5834,-5.5842,-5.585,-5.6377,-5.6384,-5.6583,-5.6691,0,0,0,-5.5254,-5.5307,-5.5345,-5.5368,-5.5454,-5.56,-5.5617,-5.5708,-5.5725,-5.5837,-5.5851,-5.6374,-5.6382,-5.657,-5.667,-5.6847,0,0,0,-5.5262,-5.5531,-5.5349,-5.5645,-5.5453,-5.5729,-5.5615,-5.5818,-5.594,-5.5844,-5.6378,-5.6386,-5.6567,-5.6657,-5.6834,-5.7004,-5.7079,0,0,-5.5624,-5.5576,-5.5746,-5.5589,-5.5908,-5.5695,-5.6044,-5.6117,-5.609,-5.629,-5.6303,-5.6588,-5.6668,-5.6844,-5.7481,-5.754,0,0,0,-5.5875,-5.5999,-5.6074,-5.6191,-5.6251,-5.6312,-5.6326,-5.6353,-5.652,-5.6201,-5.6697,-5.6744,-5.6846,-5.6925,-5.6976,-5.706,-5.6424,-5.6423,-5.6422,-5.6449,-5.6398,-5.6677,-5.665,-5.6765,-5.6776,-5.6864,-5.6902,-5.6818,-5.6936,-5.6996,-5.7388,-5.7483,-5.7521,-5.7609,-5.7081,-5.7082,-5.7083,-5.7083,-5.6975,-5.7141,-5.7022,-5.7249,-5.7194,-5.7385,-5.7405,-5.734,-5.751,-5.7339,-5.7426,-5.7246,-5.7588,-5.7662,-5.7098,-5.7096,-5.7094,-5.7092,-5.7091,-5.7346,-5.7417,-5.7443,-5.7605,-5.7736,-5.7699,-5.7867,-5.7811,-5.7759,-5.7845,-5.7902,-5.7898,-5.7888,-5.7876,-5.7877,-5.7878,-5.788,-5.7881,-5.7881,-5.7721,-5.7743,-5.7891,-5.7977,-5.8043,-5.8124,-5.8136,-5.82,-5.8257,-5.8203,-5.8203,-5.8109,-5.763,-5.7511,-5.7902,-5.7899,-5.7896,-5.7894,-5.7893,-5.8275,-5.814,-5.8369,-5.8436,-5.853,-5.8664,-5.8588,-5.8724,-5.8769,-5.8854,-5.874,-5.8395,-5.8342,-5.8301,-5.8203,-5.8749,-5.8749,-5.8749,-5.8749,-5.8589,-5.8555,-5.8775,-5.8886,-5.8987,-5.8942,-5.9203,-5.9214,-5.9205,-5.9229,-5.9142,-5.9006,-5.8967,-5.8937,-5.8882,-5.879,-5.9473,-5.9474,-5.9475,-5.8926,-5.89,-5.9133,-5.912,-5.9189,-5.925,-5.9493,-5.9625,-5.9586,-5.9503,-5.9247,-5.9217,-5.8997,-5.8928,-5.8841,-5.8757,-5.8586,0,0]},{"header":{"parameterUnit":"m.s-1","parameterCategory":1,"la1":30.2992,"la2":30.254,"lo1":-89.0895,"lo2":-89.0443,"dy":0.0025,"dx":0.0025,"nx":19,"ny":19,"refTime":"2026-04-09T03:00:00:Z","depth":0,"parameterNumber":3,"parameterNumberName":"V-component_of_WINDS"},"data":[0,0,0,-0.9602,-0.9601,-0.9566,-0.9565,-0.9517,-0.9517,0,0,0,0,0,0,0,0,0,0,0,-0.9612,-0.9612,-0.9602,-0.9601,-0.9566,-0.9565,-0.9517,-0.9517,0,0,0,0,0,0,0,0,0,0,0,-0.9612,-0.9612,-0.9611,-0.9601,-0.9566,-0.9565,-0.9517,-0.9545,0,0,0,0,0,0,0,0,0,0,-0.9579,-0.9589,-0.9612,-0.9611,-0.9601,-0.9566,-0.9565,-0.9546,-0.9543,-0.9532,0,-0.9524,0,-0.952,-0.9513,-0.9513,0,0,0,-0.9601,-0.9592,-0.9582,-0.9611,-0.96,-0.9566,-0.9581,-0.9544,-0.9541,-0.9528,-0.9524,-0.9522,-0.9519,-0.9513,-0.9513,-0.9454,-0.9454,0,0,-0.9603,-0.9605,-0.9585,-0.958,-0.9587,-0.9583,-0.958,-0.9542,-0.9537,-0.9523,-0.9521,-0.9518,-0.9513,-0.9512,-0.9454,-0.9454,0,0,0,-0.9608,-0.9607,-0.9598,-0.9582,-0.9576,-0.9582,-0.9579,-0.9539,-0.9536,-0.952,-0.9518,-0.9513,-0.9512,-0.9454,-0.9454,-0.9443,0,0,0,-0.961,-0.961,-0.9599,-0.96,-0.9577,-0.9557,-0.9576,-0.9538,-0.9534,-0.9518,-0.9512,-0.9511,-0.9455,-0.9454,-0.9444,-0.9437,0,0,0,-0.9614,-0.9611,-0.9606,-0.9601,-0.9586,-0.9558,-0.9553,-0.9537,-0.9532,-0.9513,-0.9511,-0.9455,-0.9454,-0.9444,-0.9438,-0.942,0,0,0,-0.962,-0.9597,-0.9605,-0.9578,-0.9586,-0.9552,-0.9553,-0.9527,-0.951,-0.9512,-0.9455,-0.9454,-0.9445,-0.9439,-0.9421,-0.9405,-0.94,0,0,-0.9592,-0.9594,-0.9577,-0.9584,-0.9549,-0.9557,-0.9519,-0.9501,-0.9496,-0.9468,-0.9466,-0.9443,-0.9438,-0.9421,-0.9367,-0.9362,0,0,0,-0.9569,-0.9557,-0.9547,-0.9531,-0.9516,-0.9502,-0.9489,-0.9481,-0.9457,-0.9483,-0.9433,-0.943,-0.9419,-0.9411,-0.9407,-0.9397,-0.9451,-0.9451,-0.9451,-0.9533,-0.9528,-0.95,-0.9491,-0.9474,-0.946,-0.9446,-0.9433,-0.9434,-0.9422,-0.9413,-0.9381,-0.9372,-0.9369,-0.9359,-0.9405,-0.9405,-0.9405,-0.9405,-0.949,-0.9472,-0.9472,-0.9445,-0.9439,-0.9416,-0.94,-0.9401,-0.9376,-0.9388,-0.9379,-0.939,-0.9364,-0.9355,-0.9404,-0.9404,-0.9404,-0.9405,-0.9405,-0.9465,-0.9455,-0.9447,-0.9421,-0.9401,-0.9392,-0.9369,-0.9365,-0.9361,-0.9351,-0.934,-0.934,-0.9339,-0.9347,-0.9347,-0.9346,-0.9346,-0.9346,-0.9346,-0.9441,-0.9432,-0.9414,-0.9395,-0.9383,-0.9366,-0.935,-0.9337,-0.9322,-0.932,-0.932,-0.932,-0.9363,-0.9373,-0.9344,-0.9345,-0.9345,-0.9345,-0.9345,-0.9398,-0.9407,-0.9378,-0.9366,-0.9342,-0.9321,-0.9316,-0.929,-0.9279,-0.9267,-0.9269,-0.9302,-0.9302,-0.9306,-0.9314,-0.9271,-0.9271,-0.9271,-0.9271,-0.9375,-0.9376,-0.9344,-0.9324,-0.9304,-0.9296,-0.9261,-0.9247,-0.9235,-0.9227,-0.9232,-0.9243,-0.9247,-0.9245,-0.925,-0.9257,-0.9201,-0.9201,-0.9201,-0.9347,-0.9345,-0.9317,-0.9305,-0.9286,-0.9268,-0.9235,-0.921,-0.9197,-0.9198,-0.922,-0.9223,-0.924,-0.9247,-0.9247,-0.9255,-0.9268,0,0]}]]